Location: Friaudour
(46.0460°N, 1.2873°E)
Time: 10:13:16
(UTC+00:00)

Abrixas rocket - Pass Details

Date: 14 July 2020
Orbit: 339 x 347 km, 48.4° (Epoch: 05 August)

Event Time Altitude Azimuth Distance (km) Brightness Sun altitude
Rises 03:06:01 0° 287° (WNW) 2,126 5.6 -10.4°
Reaches altitude 10° 03:08:04 10° 282° (WNW) 1,284 4.4 -10.2°
Maximum altitude 03:10:51 49° 206° (SSW) 447 2.0 -9.8°
Drops below altitude 10° 03:13:37 10° 129° (SE) 1,278 4.8 -9.5°
Sets 03:15:39 0° 124° (SE) 2,114 6.0 -9.2°
